User: anonymous   Login
Location: Estes Par
(40.3770°N, 105.5210°W)
Time: 09:58:01
(UTC-06:00)
Language:

Tiangong 2 - Orbit

View from above orbital plane
View from above orbital plane
View from above satellite
View from above satellite

Ground track
Ground track

The orbit data is extracted from the following two-line orbital elements,

1 41765U 16057A   17294.16006006  .00005233  00000-0  69431-4 0  9994
2 41765  42.7844 326.5100 0002596  12.4942  50.8204 15.59245655 62649
Epoch (UTC): 21 October 2017 03:50:29
Eccentricity: 0.0002596
inclination: 42.7844°
perigee height: 388 km
apogee height: 391 km
right ascension of ascending node: 326.5100°
argument of perigee: 12.4942°
revolutions per day: 15.59245655
mean anomaly at epoch: 50.8204°
orbit number at epoch: 6264

The dashed part of the orbit path shows where the satellite is in the earth's shadow,  

DLR